Home > Weather > Bridgetown > Past weeks

Flag for Barbados Weather for the Past 2 Weeks in Bridgetown, Barbados

Now
82 °F

More clouds than sun.


Feels Like: 88 °F
Forecast: 79 / 82 °F
Wind: 22 mph from East

Location: Grantley Adams

Current Time: May 1, 2016 at 12:01:33 PM

Latest Report: May 1, 2016 at 11:00 AM


Visibility: N/A

Pressure: 29.95 "Hg

Humidity: 74%

Dew Point: 73 °F

Location of BridgetownLocation

Historic Weather in Bridgetown — Graph

°F

Bridgetown Temperature Yesterday

Maximum temperature yesterday: 86 °F (at 12:00 PM)
Minimum temperature yesterday: 81 °F (at 12:00 AM)
Average temperature yesterday: 82 °F

High & Low Weather Summary for the Past Weeks

 TemperatureHumidityPressure
High88 °F (Apr 17, 12:00 PM)94% (Apr 16, 11:00 PM)30.01 "Hg (Apr 16, 11:00 PM)
Low79 °F (Apr 24, 4:00 AM)59% (Apr 24, 2:00 PM)29.80 "Hg (Apr 25, 5:00 PM)
Average83 °F77%29.91 "Hg
* Reported Apr 16 11:00 AM — May 1 11:00 AM, Bridgetown, Weather by CustomWeather, © 2016

Note: Actual official high and low records may vary slightly from our data, if they occured in-between our weather recording intervals... More about our weather records

Advertising

Bridgetown Weather History for the Previous 24 Hours

Scroll right to see more
 ConditionsComfort  
Time TempWeatherWind HumidityBarometerVisibility
11:00 AM
Sun, May 1
82 °FMore clouds than sun.22 mph74%29.95 "HgN/A
10:00 AM82 °FLight rain. Overcast.20 mph70%30.01 "HgN/A
9:00 AM82 °FMore clouds than sun.16 mph74%30.01 "HgN/A
8:00 AM82 °FOvercast.22 mph74%29.98 "HgN/A
7:00 AM81 °FOvercast.21 mph79%29.95 "HgN/A
6:00 AM81 °FPartly sunny.18 mph74%29.95 "HgN/A
5:00 AM81 °FSprinkles. Passing clouds.17 mph74%29.95 "HgN/A
4:00 AM81 °FPartly cloudy.18 mph79%29.92 "HgN/A
3:00 AM81 °FPartly cloudy.18 mph79%29.89 "HgN/A
2:00 AM81 °FPartly cloudy.20 mph79%29.92 "HgN/A
12:00 AM81 °FPartly cloudy.16 mph79%29.95 "HgN/A
11:00 PM
Sat, Apr 30
81 °FPartly cloudy.17 mph79%29.98 "HgN/A
10:00 PM81 °FPartly cloudy.18 mph79%29.98 "HgN/A
9:00 PM81 °FPassing clouds.20 mph79%29.95 "HgN/A
8:00 PM82 °FPassing clouds.17 mph70%29.92 "HgN/A
7:00 PM81 °FPassing clouds.17 mph79%29.92 "HgN/A
6:00 PM81 °FScattered clouds.17 mph79%29.89 "HgN/A
5:00 PM82 °FBroken clouds.16 mph74%29.86 "HgN/A
4:00 PM82 °FPartly sunny.16 mph74%29.86 "HgN/A
3:00 PM84 °FPartly sunny.14 mph70%29.89 "HgN/A
2:00 PM84 °FPartly sunny.17 mph70%29.89 "HgN/A
1:00 PM84 °FBroken clouds.18 mph70%29.92 "HgN/A
12:00 PM86 °FBroken clouds.21 mph66%29.92 "HgN/A
Weather by CustomWeather, © 2016

See weather overviewHow to use our weather pages